Time,TemperatureF,DewpointF,PressureIn,WindDirection,WindDirectionDegrees,WindSpeedMPH,WindSpeedGustMPH,Humidity,HourlyPrecipIn,Conditions,Clouds,dailyrainin,SoftwareType,DateUTC
2013-03-30 00:00:00,51.1,36.4,30.07,East,90,2.2,2.2,57,0.00,,,0.00,WUHU216HW,2013-03-30 05:00:00,
2013-03-30 00:05:00,51.1,36.4,30.07,SE,135,2.5,2.9,57,0.00,,,0.00,WUHU216HW,2013-03-30 05:05:00,
2013-03-30 00:10:00,51.1,36.4,30.06,SE,135,1.3,2.9,57,0.00,,,0.00,WUHU216HW,2013-03-30 05:10:00,
2013-03-30 00:15:00,50.9,36.6,30.06,SE,135,2.5,2.5,58,0.00,,,0.00,WUHU216HW,2013-03-30 05:15:00,
2013-03-30 00:20:00,50.9,36.6,30.05,ESE,113,1.6,2.9,58,0.00,,,0.00,WUHU216HW,2013-03-30 05:20:00,
2013-03-30 00:25:00,50.8,36.5,30.06,SE,135,1.3,2.9,58,0.00,,,0.00,WUHU216HW,2013-03-30 05:25:00,
2013-03-30 00:30:00,50.8,36.9,30.05,East,90,2.9,2.9,59,0.00,,,0.00,WUHU216HW,2013-03-30 05:30:00,
2013-03-30 00:35:00,50.6,36.7,30.05,ESE,113,2.5,3.1,59,0.00,,,0.00,WUHU216HW,2013-03-30 05:35:00,
2013-03-30 00:40:00,50.4,36.6,30.05,ESE,113,3.4,3.4,59,0.00,,,0.00,WUHU216HW,2013-03-30 05:40:00,
2013-03-30 00:45:00,50.2,36.9,30.05,SE,135,2.5,3.4,60,0.00,,,0.00,WUHU216HW,2013-03-30 05:45:00,
2013-03-30 00:50:00,50.0,36.7,30.05,SE,135,2.0,3.4,60,0.00,,,0.00,WUHU216HW,2013-03-30 05:50:00,
2013-03-30 00:55:00,50.0,36.7,30.05,ESE,113,4.7,4.7,60,0.00,,,0.00,WUHU216HW,2013-03-30 05:55:00,
2013-03-30 01:00:00,49.9,37.0,30.05,ESE,113,3.1,4.7,61,0.00,,,0.00,WUHU216HW,2013-03-30 06:00:00,
2013-03-30 01:05:00,49.9,37.0,30.05,SE,135,2.5,3.4,61,0.00,,,0.00,WUHU216HW,2013-03-30 06:05:00,
2013-03-30 01:10:00,49.7,36.8,30.05,SE,135,2.2,3.1,61,0.00,,,0.00,WUHU216HW,2013-03-30 06:10:00,
2013-03-30 01:15:00,49.5,36.6,30.05,SSE,158,2.9,2.9,61,0.00,,,0.00,WUHU216HW,2013-03-30 06:15:00,
2013-03-30 01:20:00,49.5,37.0,30.04,SE,135,4.7,4.7,62,0.00,,,0.00,WUHU216HW,2013-03-30 06:20:00,
2013-03-30 01:25:00,49.5,37.0,30.05,SE,135,3.4,4.7,62,0.00,,,0.00,WUHU216HW,2013-03-30 06:25:00,
2013-03-30 01:30:00,49.5,37.0,30.05,SE,135,1.8,4.7,62,0.00,,,0.00,WUHU216HW,2013-03-30 06:30:00,
2013-03-30 01:35:00,49.3,36.8,30.05,SE,135,1.3,2.0,62,0.00,,,0.00,WUHU216HW,2013-03-30 06:35:00,
2013-03-30 01:40:00,49.3,37.3,30.04,SE,135,1.6,5.6,63,0.00,,,0.00,WUHU216HW,2013-03-30 06:40:00,
2013-03-30 01:45:00,49.1,37.1,30.04,ESE,113,4.5,5.6,63,0.00,,,0.00,WUHU216HW,2013-03-30 06:45:00,
2013-03-30 01:50:00,49.0,36.9,30.04,ESE,113,3.4,4.9,63,0.00,,,0.00,WUHU216HW,2013-03-30 06:50:00,
2013-03-30 01:55:00,49.0,37.3,30.04,SE,135,2.5,5.4,64,0.00,,,0.00,WUHU216HW,2013-03-30 06:55:00,
2013-03-30 02:00:00,48.8,36.7,30.05,ESE,113,2.7,5.4,63,0.00,,,0.00,WUHU216HW,2013-03-30 07:00:00,
2013-03-30 02:05:00,48.6,37.0,30.05,SE,135,2.5,2.7,64,0.00,,,0.00,WUHU216HW,2013-03-30 07:05:00,
2013-03-30 02:10:00,48.4,36.8,30.05,SE,135,4.0,4.0,64,0.00,,,0.00,WUHU216HW,2013-03-30 07:10:00,
2013-03-30 02:15:00,48.2,36.6,30.04,SE,135,1.3,4.0,64,0.00,,,0.00,WUHU216HW,2013-03-30 07:15:00,
2013-03-30 02:20:00,48.1,36.5,30.05,SE,135,2.0,4.0,64,0.00,,,0.00,WUHU216HW,2013-03-30 07:20:00,
2013-03-30 02:25:00,47.9,35.9,30.05,South,180,0.2,2.0,63,0.00,,,0.00,WUHU216HW,2013-03-30 07:25:00,
2013-03-30 02:30:00,47.9,36.3,30.05,SE,135,3.1,3.1,64,0.00,,,0.00,WUHU216HW,2013-03-30 07:30:00,
2013-03-30 02:35:00,47.9,36.3,30.05,SSE,158,3.1,3.1,64,0.00,,,0.00,WUHU216HW,2013-03-30 07:35:00,
2013-03-30 02:40:00,47.9,36.6,30.04,SE,135,1.8,3.1,65,0.00,,,0.00,WUHU216HW,2013-03-30 07:40:00,
2013-03-30 02:45:00,47.9,36.6,30.04,SE,135,3.8,3.8,65,0.00,,,0.00,WUHU216HW,2013-03-30 07:45:00,
2013-03-30 02:50:00,47.9,37.0,30.03,SE,135,3.1,3.8,66,0.00,,,0.00,WUHU216HW,2013-03-30 07:50:00,
2013-03-30 02:55:00,48.1,37.2,30.03,SE,135,2.7,3.8,66,0.00,,,0.00,WUHU216HW,2013-03-30 07:55:00,
2013-03-30 03:00:00,48.1,36.8,30.03,SE,135,2.5,4.0,65,0.00,,,0.00,WUHU216HW,2013-03-30 08:00:00,
2013-03-30 03:05:00,47.9,37.0,30.03,SE,135,1.1,4.0,66,0.00,,,0.00,WUHU216HW,2013-03-30 08:05:00,
2013-03-30 03:10:00,47.9,37.0,30.02,SE,135,2.7,2.7,66,0.00,,,0.00,WUHU216HW,2013-03-30 08:10:00,
2013-03-30 03:15:00,47.7,37.3,30.02,SSE,158,1.1,2.7,67,0.00,,,0.00,WUHU216HW,2013-03-30 08:15:00,
2013-03-30 03:20:00,47.3,36.9,30.02,SSE,158,2.0,2.7,67,0.00,,,0.00,WUHU216HW,2013-03-30 08:20:00,
2013-03-30 03:25:00,47.3,37.3,30.02,ESE,113,1.8,2.0,68,0.00,,,0.00,WUHU216HW,2013-03-30 08:25:00,
2013-03-30 03:30:00,47.2,37.5,30.02,SE,135,2.2,2.2,69,0.00,,,0.00,WUHU216HW,2013-03-30 08:30:00,
2013-03-30 03:35:00,47.2,37.5,30.01,SE,135,2.0,3.4,69,0.00,,,0.00,WUHU216HW,2013-03-30 08:35:00,
2013-03-30 03:40:00,47.2,38.3,30.01,SE,135,2.5,3.6,71,0.00,,,0.00,WUHU216HW,2013-03-30 08:40:00,
2013-03-30 03:45:00,47.2,38.3,30.01,SE,135,1.1,3.6,71,0.00,,,0.00,WUHU216HW,2013-03-30 08:45:00,
2013-03-30 03:50:00,47.2,38.6,30.01,SE,135,2.5,2.5,72,0.00,,,0.00,WUHU216HW,2013-03-30 08:50:00,
2013-03-30 03:55:00,47.2,38.6,30.00,East,90,2.0,2.5,72,0.00,,,0.00,WUHU216HW,2013-03-30 08:55:00,
2013-03-30 04:00:00,47.2,38.6,30.00,East,90,2.5,2.5,72,0.00,,,0.00,WUHU216HW,2013-03-30 09:00:00,
2013-03-30 04:05:00,47.2,38.6,30.00,SE,135,1.6,2.7,72,0.00,,,0.00,WUHU216HW,2013-03-30 09:05:00,
2013-03-30 04:10:00,47.2,38.6,30.00,SE,135,1.6,2.7,72,0.00,,,0.00,WUHU216HW,2013-03-30 09:10:00,
2013-03-30 04:15:00,47.2,39.2,30.00,ESE,113,1.1,1.8,74,0.00,,,0.00,WUHU216HW,2013-03-30 09:15:00,
2013-03-30 04:20:00,47.2,39.2,30.00,ESE,113,1.6,1.8,74,0.00,,,0.00,WUHU216HW,2013-03-30 09:20:00,
2013-03-30 04:25:00,47.2,39.2,30.00,ESE,113,1.8,1.8,74,0.00,,,0.00,WUHU216HW,2013-03-30 09:25:00,
2013-03-30 04:30:00,47.2,39.6,30.00,SE,135,1.3,1.8,75,0.00,,,0.00,WUHU216HW,2013-03-30 09:30:00,
2013-03-30 04:34:00,47.3,39.8,30.00,ESE,113,1.3,2.5,75,0.00,,,0.00,WUHU216HW,2013-03-30 09:34:00,
2013-03-30 04:39:00,47.3,39.8,29.99,ESE,113,2.0,2.5,75,0.00,,,0.00,WUHU216HW,2013-03-30 09:39:00,
2013-03-30 04:44:00,47.5,40.0,30.00,ESE,113,2.0,2.0,75,0.00,,,0.00,WUHU216HW,2013-03-30 09:44:00,
2013-03-30 04:49:00,47.7,40.2,29.99,ESE,113,1.8,2.0,75,0.00,,,0.00,WUHU216HW,2013-03-30 09:49:00,
2013-03-30 04:54:00,47.7,40.2,29.99,SE,135,1.8,2.0,75,0.00,,,0.00,WUHU216HW,2013-03-30 09:54:00,
2013-03-30 04:59:00,47.9,40.2,29.98,ESE,113,2.0,2.0,75,0.00,,,0.00,WUHU216HW,2013-03-30 09:59:00,
2013-03-30 05:04:00,47.9,40.2,29.98,SE,135,1.1,2.0,75,0.00,,,0.00,WUHU216HW,2013-03-30 10:04:00,
2013-03-30 05:09:00,47.9,40.2,29.98,ESE,113,2.5,2.5,75,0.00,,,0.00,WUHU216HW,2013-03-30 10:09:00,
2013-03-30 05:14:00,47.9,40.6,29.98,SE,135,2.2,2.5,76,0.00,,,0.00,WUHU216HW,2013-03-30 10:14:00,
2013-03-30 05:19:00,47.9,40.6,29.97,ESE,113,2.5,3.1,76,0.00,,,0.00,WUHU216HW,2013-03-30 10:19:00,
2013-03-30 05:24:00,47.7,40.4,29.97,ESE,113,1.1,3.1,76,0.00,,,0.00,WUHU216HW,2013-03-30 10:24:00,
2013-03-30 05:29:00,47.9,41.0,29.97,East,90,0.7,2.5,77,0.00,,,0.00,WUHU216HW,2013-03-30 10:29:00,
2013-03-30 05:34:00,47.9,41.0,29.97,SE,135,3.1,3.1,77,0.00,,,0.00,WUHU216HW,2013-03-30 10:34:00,
2013-03-30 05:39:00,47.9,41.0,29.97,SE,135,1.8,3.1,77,0.00,,,0.00,WUHU216HW,2013-03-30 10:39:00,
2013-03-30 05:44:00,48.1,41.1,29.97,SE,135,3.1,3.1,77,0.00,,,0.00,WUHU216HW,2013-03-30 10:44:00,
2013-03-30 05:49:00,48.1,41.1,29.97,SSE,158,3.8,3.8,77,0.00,,,0.00,WUHU216HW,2013-03-30 10:49:00,
2013-03-30 05:54:00,48.2,41.6,29.96,SE,135,3.8,3.8,78,0.00,,,0.00,WUHU216HW,2013-03-30 10:54:00,
2013-03-30 05:59:00,48.4,41.5,29.96,SE,135,3.4,4.9,77,0.00,,,0.00,WUHU216HW,2013-03-30 10:59:00,
2013-03-30 06:04:00,48.6,42.3,29.95,SE,135,4.0,4.9,79,0.00,,,0.00,WUHU216HW,2013-03-30 11:04:00,
2013-03-30 06:09:00,48.6,41.9,29.95,SSE,158,1.1,4.0,78,0.00,,,0.00,WUHU216HW,2013-03-30 11:09:00,
2013-03-30 06:14:00,48.8,42.1,29.95,ESE,113,4.0,4.0,78,0.00,,,0.00,WUHU216HW,2013-03-30 11:14:00,
2013-03-30 06:19:00,49.0,42.3,29.95,SSE,158,2.9,4.0,78,0.00,,,0.00,WUHU216HW,2013-03-30 11:19:00,
2013-03-30 06:24:00,49.0,42.3,29.95,SSE,158,2.2,4.0,78,0.00,,,0.00,WUHU216HW,2013-03-30 11:24:00,
2013-03-30 06:29:00,49.1,42.8,29.95,SE,135,3.8,3.8,79,0.00,,,0.00,WUHU216HW,2013-03-30 11:29:00,
2013-03-30 06:34:00,49.3,42.7,29.95,SSE,158,1.8,3.8,78,0.00,,,0.00,WUHU216HW,2013-03-30 11:34:00,
2013-03-30 06:39:00,49.5,42.8,29.96,SE,135,1.8,3.8,78,0.00,,,0.00,WUHU216HW,2013-03-30 11:39:00,
2013-03-30 06:44:00,49.7,43.0,29.96,SE,135,2.5,2.5,78,0.00,,,0.00,WUHU216HW,2013-03-30 11:44:00,
2013-03-30 06:49:00,50.0,43.7,29.95,South,180,2.0,4.7,79,0.00,,,0.00,WUHU216HW,2013-03-30 11:49:00,
2013-03-30 06:55:00,50.0,43.7,29.95,SE,135,2.0,4.7,79,0.00,,,0.00,WUHU216HW,2013-03-30 11:55:00,
2013-03-30 06:59:00,50.0,43.7,29.95,SSE,158,4.0,4.0,79,0.00,,,0.00,WUHU216HW,2013-03-30 11:59:00,
2013-03-30 07:05:00,50.4,44.1,29.95,South,180,9.8,9.8,79,0.00,,,0.00,WUHU216HW,2013-03-30 12:05:00,
2013-03-30 07:10:00,50.8,44.8,29.95,SSE,158,5.6,9.8,80,0.00,,,0.00,WUHU216HW,2013-03-30 12:10:00,
2013-03-30 07:14:00,50.9,45.0,29.95,South,180,4.7,9.8,80,0.00,,,0.00,WUHU216HW,2013-03-30 12:14:00,
2013-03-30 07:19:00,50.9,45.0,29.95,SSE,158,6.5,7.4,80,0.00,,,0.00,WUHU216HW,2013-03-30 12:19:00,
2013-03-30 07:24:00,51.1,45.2,29.95,SSE,158,6.5,8.5,80,0.00,,,0.00,WUHU216HW,2013-03-30 12:24:00,
2013-03-30 07:29:00,51.1,45.2,29.95,South,180,6.9,8.5,80,0.00,,,0.00,WUHU216HW,2013-03-30 12:29:00,
2013-03-30 07:35:00,51.1,45.2,29.95,SSE,158,6.5,6.9,80,0.00,,,0.00,WUHU216HW,2013-03-30 12:35:00,
2013-03-30 07:39:00,51.1,45.5,29.95,SSE,158,4.7,6.9,81,0.00,,,0.00,WUHU216HW,2013-03-30 12:39:00,
2013-03-30 07:44:00,51.1,45.8,29.95,South,180,8.5,8.5,82,0.00,,,0.00,WUHU216HW,2013-03-30 12:44:00,
2013-03-30 07:49:00,50.9,45.6,29.95,South,180,8.9,10.1,82,0.00,,,0.00,WUHU216HW,2013-03-30 12:49:00,
2013-03-30 07:54:00,50.8,45.5,29.94,SSE,158,8.5,10.1,82,0.00,,,0.00,WUHU216HW,2013-03-30 12:54:00,
2013-03-30 07:59:00,50.6,45.9,29.94,SSE,158,8.9,8.9,84,0.00,,,0.00,WUHU216HW,2013-03-30 12:59:00,
2013-03-30 08:04:00,49.9,45.8,29.94,SE,135,5.8,9.4,86,0.00,,,0.00,WUHU216HW,2013-03-30 13:04:00,
2013-03-30 08:09:00,49.7,45.6,29.94,SSE,158,8.3,9.4,86,0.00,,,0.00,WUHU216HW,2013-03-30 13:09:00,
2013-03-30 08:14:00,49.7,45.9,29.94,SE,135,10.5,11.0,87,0.00,,,0.00,WUHU216HW,2013-03-30 13:14:00,
2013-03-30 08:19:00,49.5,46.1,29.94,South,180,14.1,14.1,88,0.00,,,0.00,WUHU216HW,2013-03-30 13:19:00,
2013-03-30 08:24:00,49.5,46.1,29.94,SSE,158,4.9,14.1,88,0.00,,,0.00,WUHU216HW,2013-03-30 13:24:00,
2013-03-30 08:29:00,49.5,46.1,29.94,SE,135,4.3,14.1,88,0.00,,,0.00,WUHU216HW,2013-03-30 13:29:00,
2013-03-30 08:34:00,49.3,45.9,29.94,SSE,158,3.4,4.9,88,0.00,,,0.00,WUHU216HW,2013-03-30 13:34:00,
2013-03-30 08:39:00,49.3,45.9,29.94,SE,135,4.0,4.0,88,0.00,,,0.00,WUHU216HW,2013-03-30 13:39:00,
2013-03-30 08:44:00,49.3,45.9,29.93,South,180,2.7,6.9,88,0.00,,,0.00,WUHU216HW,2013-03-30 13:44:00,
2013-03-30 08:49:00,49.3,45.9,29.93,South,180,6.9,6.9,88,0.00,,,0.00,WUHU216HW,2013-03-30 13:49:00,
2013-03-30 08:55:00,49.3,45.9,29.93,ESE,113,6.9,9.2,88,0.00,,,0.00,WUHU216HW,2013-03-30 13:55:00,
2013-03-30 09:00:00,49.3,45.9,29.93,ESE,113,4.7,9.2,88,0.00,,,0.00,WUHU216HW,2013-03-30 14:00:00,
2013-03-30 09:05:00,49.3,45.9,29.92,South,180,7.6,7.6,88,0.00,,,0.00,WUHU216HW,2013-03-30 14:05:00,
2013-03-30 09:10:00,49.3,45.9,29.92,SSE,158,6.3,7.6,88,0.00,,,0.00,WUHU216HW,2013-03-30 14:10:00,
2013-03-30 09:15:00,49.3,45.9,29.92,SE,135,4.5,6.3,88,0.00,,,0.00,WUHU216HW,2013-03-30 14:15:00,
2013-03-30 09:20:00,49.5,46.4,29.91,SE,135,6.5,6.5,89,0.00,,,0.00,WUHU216HW,2013-03-30 14:20:00,
2013-03-30 09:25:00,49.7,46.5,29.91,SSE,158,4.7,6.5,89,0.00,,,0.00,WUHU216HW,2013-03-30 14:25:00,
2013-03-30 09:30:00,49.7,46.5,29.92,South,180,4.7,4.7,89,0.00,,,0.00,WUHU216HW,2013-03-30 14:30:00,
2013-03-30 09:35:00,49.9,46.4,29.92,SE,135,6.0,6.0,88,0.00,,,0.00,WUHU216HW,2013-03-30 14:35:00,
2013-03-30 09:40:00,50.0,46.9,29.91,SE,135,5.8,6.0,89,0.00,,,0.00,WUHU216HW,2013-03-30 14:40:00,
2013-03-30 09:45:00,50.0,46.9,29.92,SE,135,4.5,5.8,89,0.00,,,0.00,WUHU216HW,2013-03-30 14:45:00,
2013-03-30 09:50:00,50.2,47.1,29.92,SE,135,6.5,7.8,89,0.00,,,0.00,WUHU216HW,2013-03-30 14:50:00,
2013-03-30 09:55:00,50.2,47.1,29.92,SSE,158,7.2,7.8,89,0.00,,,0.00,WUHU216HW,2013-03-30 14:55:00,
2013-03-30 10:00:00,50.4,47.3,29.92,SSE,158,7.4,7.4,89,0.00,,,0.00,WUHU216HW,2013-03-30 15:00:00,
2013-03-30 10:05:00,50.4,47.3,29.92,SE,135,7.2,7.4,89,0.00,,,0.00,WUHU216HW,2013-03-30 15:05:00,
2013-03-30 10:10:00,50.6,47.1,29.92,South,180,7.2,7.4,88,0.00,,,0.00,WUHU216HW,2013-03-30 15:10:00,
2013-03-30 10:15:00,50.4,46.9,29.92,South,180,6.3,7.2,88,0.00,,,0.00,WUHU216HW,2013-03-30 15:15:00,
2013-03-30 10:20:00,50.4,47.3,29.92,SSE,158,7.4,7.4,89,0.00,,,0.00,WUHU216HW,2013-03-30 15:20:00,
2013-03-30 10:25:00,50.6,47.1,29.92,South,180,5.8,7.4,88,0.00,,,0.00,WUHU216HW,2013-03-30 15:25:00,
2013-03-30 10:30:00,50.6,47.1,29.91,SE,135,3.4,5.8,88,0.00,,,0.00,WUHU216HW,2013-03-30 15:30:00,
2013-03-30 10:35:00,50.6,47.4,29.92,SSE,158,5.4,5.8,89,0.00,,,0.00,WUHU216HW,2013-03-30 15:35:00,
2013-03-30 10:40:00,50.6,47.1,29.92,SE,135,5.1,5.4,88,0.00,,,0.00,WUHU216HW,2013-03-30 15:40:00,
2013-03-30 10:45:00,50.6,47.1,29.91,SE,135,6.9,6.9,88,0.00,,,0.00,WUHU216HW,2013-03-30 15:45:00,
2013-03-30 10:50:00,50.6,47.4,29.91,SSE,158,3.4,7.6,89,0.00,,,0.00,WUHU216HW,2013-03-30 15:50:00,
2013-03-30 10:55:00,50.6,47.4,29.91,SE,135,7.4,7.6,89,0.00,,,0.00,WUHU216HW,2013-03-30 15:55:00,
2013-03-30 11:00:00,50.4,47.3,29.92,SSW,203,8.5,8.5,89,0.00,,,0.00,WUHU216HW,2013-03-30 16:00:00,
2013-03-30 11:05:00,50.6,47.4,29.92,South,180,9.2,9.2,89,0.00,,,0.00,WUHU216HW,2013-03-30 16:05:00,
2013-03-30 11:10:00,50.4,47.3,29.92,South,180,8.3,9.2,89,0.00,,,0.00,WUHU216HW,2013-03-30 16:10:00,
2013-03-30 11:15:00,50.6,47.4,29.92,South,180,5.1,9.2,89,0.00,,,0.00,WUHU216HW,2013-03-30 16:15:00,
2013-03-30 11:20:00,50.6,47.4,29.92,SSE,158,5.4,5.8,89,0.00,,,0.00,WUHU216HW,2013-03-30 16:20:00,
2013-03-30 11:25:00,50.8,47.9,29.92,South,180,2.9,5.4,90,0.00,,,0.00,WUHU216HW,2013-03-30 16:25:00,
2013-03-30 11:30:00,50.8,47.9,29.92,SSE,158,9.2,9.2,90,0.00,,,0.00,WUHU216HW,2013-03-30 16:30:00,
2013-03-30 11:35:00,50.9,48.1,29.92,South,180,7.4,9.2,90,0.00,,,0.00,WUHU216HW,2013-03-30 16:35:00,
2013-03-30 11:40:00,50.8,47.9,29.92,South,180,3.1,9.2,90,0.00,,,0.00,WUHU216HW,2013-03-30 16:40:00,
2013-03-30 11:45:00,50.9,48.1,29.92,SSE,158,2.9,7.4,90,0.00,,,0.00,WUHU216HW,2013-03-30 16:45:00,
2013-03-30 11:50:00,50.9,48.1,29.92,South,180,3.1,3.1,90,0.00,,,0.00,WUHU216HW,2013-03-30 16:50:00,
2013-03-30 11:55:00,51.1,48.2,29.92,SE,135,3.4,3.4,90,0.00,,,0.00,WUHU216HW,2013-03-30 16:55:00,
2013-03-30 12:00:00,51.1,48.2,29.93,SSE,158,3.4,3.4,90,0.00,,,0.00,WUHU216HW,2013-03-30 17:00:00,
2013-03-30 12:05:00,51.3,48.4,29.92,SSE,158,2.0,3.6,90,0.00,,,0.00,WUHU216HW,2013-03-30 17:05:00,
2013-03-30 12:10:00,51.5,48.6,29.93,SSE,158,5.1,5.1,90,0.00,,,0.00,WUHU216HW,2013-03-30 17:10:00,
2013-03-30 12:15:00,51.7,48.8,29.93,SE,135,2.2,5.1,90,0.00,,,0.00,WUHU216HW,2013-03-30 17:15:00,
2013-03-30 12:20:00,52.0,49.1,29.93,SSE,158,2.9,5.1,90,0.00,,,0.00,WUHU216HW,2013-03-30 17:20:00,
2013-03-30 12:25:00,52.2,49.3,29.93,SSE,158,5.6,5.6,90,0.00,,,0.00,WUHU216HW,2013-03-30 17:25:00,
2013-03-30 12:30:00,52.2,49.3,29.93,SSE,158,2.5,5.6,90,0.00,,,0.00,WUHU216HW,2013-03-30 17:30:00,
2013-03-30 12:35:00,52.2,49.3,29.93,South,180,1.8,2.5,90,0.00,,,0.00,WUHU216HW,2013-03-30 17:35:00,
2013-03-30 12:40:00,52.4,49.5,29.93,SSE,158,4.5,4.5,90,0.00,,,0.00,WUHU216HW,2013-03-30 17:40:00,
2013-03-30 12:45:00,52.4,49.5,29.93,SSE,158,5.8,5.8,90,0.00,,,0.00,WUHU216HW,2013-03-30 17:45:00,
2013-03-30 12:50:00,52.2,49.3,29.92,SE,135,4.9,5.8,90,0.00,,,0.00,WUHU216HW,2013-03-30 17:50:00,
2013-03-30 12:55:00,52.2,49.3,29.92,SSE,158,4.9,5.8,90,0.00,,,0.00,WUHU216HW,2013-03-30 17:55:00,
2013-03-30 13:00:00,52.4,49.5,29.92,South,180,5.6,5.6,90,0.00,,,0.00,WUHU216HW,2013-03-30 18:00:00,
2013-03-30 13:05:00,52.4,49.8,29.92,SSE,158,7.6,7.6,91,0.00,,,0.00,WUHU216HW,2013-03-30 18:05:00,
2013-03-30 13:10:00,52.4,49.8,29.92,South,180,3.4,7.6,91,0.00,,,0.00,WUHU216HW,2013-03-30 18:10:00,
2013-03-30 13:15:00,52.6,49.7,29.92,South,180,1.8,7.6,90,0.00,,,0.00,WUHU216HW,2013-03-30 18:15:00,
2013-03-30 13:20:00,52.6,49.7,29.91,SSE,158,4.7,4.7,90,0.00,,,0.00,WUHU216HW,2013-03-30 18:20:00,
2013-03-30 13:25:00,52.6,49.7,29.91,SE,135,2.9,4.7,90,0.00,,,0.00,WUHU216HW,2013-03-30 18:25:00,
2013-03-30 13:30:00,52.9,50.0,29.91,South,180,3.6,4.7,90,0.00,,,0.00,WUHU216HW,2013-03-30 18:30:00,
2013-03-30 13:35:00,53.3,50.4,29.90,SE,135,2.5,3.6,90,0.00,,,0.00,WUHU216HW,2013-03-30 18:35:00,
2013-03-30 13:40:00,53.5,50.6,29.90,South,180,3.4,3.6,90,0.00,,,0.00,WUHU216HW,2013-03-30 18:40:00,
2013-03-30 13:45:00,53.5,50.6,29.90,SE,135,3.6,3.6,90,0.00,,,0.00,WUHU216HW,2013-03-30 18:45:00,
2013-03-30 13:50:00,53.5,50.6,29.90,SSE,158,3.4,3.6,90,0.00,,,0.00,WUHU216HW,2013-03-30 18:50:00,
2013-03-30 13:55:00,53.6,50.8,29.90,SSE,158,2.5,3.6,90,0.00,,,0.00,WUHU216HW,2013-03-30 18:55:00,
2013-03-30 14:00:00,53.6,50.5,29.90,South,180,3.1,3.4,89,0.00,,,0.00,WUHU216HW,2013-03-30 19:00:00,
2013-03-30 14:05:00,53.8,50.7,29.90,South,180,5.6,5.6,89,0.00,,,0.00,WUHU216HW,2013-03-30 19:05:00,
2013-03-30 14:10:00,53.8,50.7,29.89,SSE,158,4.7,5.6,89,0.00,,,0.00,WUHU216HW,2013-03-30 19:10:00,
2013-03-30 14:15:00,54.2,51.3,29.89,SSE,158,4.5,5.6,90,0.00,,,0.00,WUHU216HW,2013-03-30 19:15:00,
2013-03-30 14:20:00,54.9,52.0,29.89,South,180,5.4,5.4,90,0.00,,,0.00,WUHU216HW,2013-03-30 19:20:00,
2013-03-30 14:25:00,55.6,52.4,29.89,South,180,6.7,6.7,89,0.00,,,0.00,WUHU216HW,2013-03-30 19:25:00,
2013-03-30 14:30:00,55.6,52.4,29.88,SSW,203,3.8,6.7,89,0.00,,,0.00,WUHU216HW,2013-03-30 19:30:00,
2013-03-30 14:35:00,55.8,52.6,29.88,SSE,158,4.7,6.7,89,0.00,,,0.00,WUHU216HW,2013-03-30 19:35:00,
2013-03-30 14:40:00,55.8,52.6,29.88,South,180,5.6,5.6,89,0.00,,,0.00,WUHU216HW,2013-03-30 19:40:00,
2013-03-30 14:45:00,55.8,52.3,29.87,SSE,158,2.9,5.6,88,0.00,,,0.00,WUHU216HW,2013-03-30 19:45:00,
2013-03-30 14:50:00,56.7,53.5,29.87,SSE,158,6.7,6.7,89,0.00,,,0.00,WUHU216HW,2013-03-30 19:50:00,
2013-03-30 14:55:00,57.2,53.7,29.86,South,180,6.0,6.7,88,0.00,,,0.00,WUHU216HW,2013-03-30 19:55:00,
2013-03-30 15:00:00,57.6,54.1,29.86,SE,135,5.4,6.0,88,0.00,,,0.00,WUHU216HW,2013-03-30 20:00:00,
2013-03-30 15:05:00,58.3,54.8,29.86,SSW,203,4.9,6.0,88,0.00,,,0.00,WUHU216HW,2013-03-30 20:05:00,
2013-03-30 15:10:00,58.9,55.0,29.86,SSE,158,4.0,6.5,87,0.00,,,0.00,WUHU216HW,2013-03-30 20:10:00,
2013-03-30 15:15:00,59.9,56.1,29.85,South,180,4.7,6.5,87,0.00,,,0.00,WUHU216HW,2013-03-30 20:15:00,
2013-03-30 15:20:00,60.7,55.2,29.85,South,180,7.2,7.2,82,0.00,,,0.00,WUHU216HW,2013-03-30 20:20:00,
2013-03-30 15:25:00,61.4,56.2,29.85,South,180,5.4,7.2,83,0.00,,,0.00,WUHU216HW,2013-03-30 20:25:00,
2013-03-30 15:30:00,60.8,55.4,29.85,South,180,8.1,8.1,82,0.00,,,0.00,WUHU216HW,2013-03-30 20:30:00,
2013-03-30 15:35:00,60.3,54.8,29.85,South,180,6.3,8.1,82,0.00,,,0.00,WUHU216HW,2013-03-30 20:35:00,
2013-03-30 15:40:00,59.8,54.0,29.85,South,180,6.5,8.1,81,0.00,,,0.00,WUHU216HW,2013-03-30 20:40:00,
2013-03-30 15:45:00,59.8,54.6,29.85,South,180,4.3,6.5,83,0.00,,,0.00,WUHU216HW,2013-03-30 20:45:00,
2013-03-30 15:50:00,59.8,54.6,29.84,SE,135,3.4,5.6,83,0.00,,,0.00,WUHU216HW,2013-03-30 20:50:00,
2013-03-30 15:55:00,60.1,55.0,29.85,South,180,5.4,5.4,83,0.00,,,0.00,WUHU216HW,2013-03-30 20:55:00,
2013-03-30 16:00:00,59.8,54.6,29.85,South,180,3.6,5.4,83,0.00,,,0.00,WUHU216HW,2013-03-30 21:00:00,
2013-03-30 16:05:00,59.4,54.3,29.85,SSE,158,4.0,5.4,83,0.00,,,0.00,WUHU216HW,2013-03-30 21:05:00,
2013-03-30 16:10:00,59.6,54.5,29.84,South,180,3.4,4.0,83,0.00,,,0.00,WUHU216HW,2013-03-30 21:10:00,
2013-03-30 16:15:00,59.8,54.6,29.84,SE,135,1.8,6.3,83,0.00,,,0.00,WUHU216HW,2013-03-30 21:15:00,
2013-03-30 16:20:00,59.8,54.6,29.84,SE,135,1.1,6.3,83,0.00,,,0.00,WUHU216HW,2013-03-30 21:20:00,
2013-03-30 16:25:00,59.4,53.9,29.84,SW,225,1.8,1.8,82,0.00,,,0.00,WUHU216HW,2013-03-30 21:25:00,
2013-03-30 16:30:00,59.2,53.7,29.84,SSE,158,0.0,1.8,82,0.00,,,0.00,WUHU216HW,2013-03-30 21:30:00,
2013-03-30 16:35:00,59.9,54.8,29.84,SSE,158,2.7,4.0,83,0.00,,,0.00,WUHU216HW,2013-03-30 21:35:00,
2013-03-30 16:40:00,60.1,55.0,29.84,SSE,158,2.7,4.0,83,0.00,,,0.00,WUHU216HW,2013-03-30 21:40:00,
2013-03-30 16:45:00,60.1,55.0,29.84,SSE,158,1.3,4.0,83,0.00,,,0.00,WUHU216HW,2013-03-30 21:45:00,
2013-03-30 16:50:00,60.5,55.0,29.84,South,180,3.4,4.0,82,0.00,,,0.00,WUHU216HW,2013-03-30 21:50:00,
2013-03-30 16:55:00,60.5,55.0,29.84,South,180,2.5,3.4,82,0.00,,,0.00,WUHU216HW,2013-03-30 21:55:00,
2013-03-30 17:00:00,60.1,54.6,29.84,SSW,203,1.1,3.4,82,0.00,,,0.00,WUHU216HW,2013-03-30 22:00:00,
2013-03-30 17:05:00,60.3,54.8,29.84,South,180,2.5,2.5,82,0.00,,,0.00,WUHU216HW,2013-03-30 22:05:00,
2013-03-30 17:10:00,60.5,55.0,29.83,South,180,3.1,3.1,82,0.00,,,0.00,WUHU216HW,2013-03-30 22:10:00,
2013-03-30 17:15:00,60.3,54.8,29.83,SE,135,3.4,3.4,82,0.00,,,0.00,WUHU216HW,2013-03-30 22:15:00,
2013-03-30 17:20:00,60.1,54.4,29.83,ESE,113,2.5,3.4,81,0.00,,,0.00,WUHU216HW,2013-03-30 22:20:00,
2013-03-30 17:25:00,60.1,54.4,29.83,SSE,158,2.2,2.5,81,0.00,,,0.00,WUHU216HW,2013-03-30 22:25:00,
2013-03-30 17:30:00,60.5,54.7,29.83,ESE,113,1.1,2.5,81,0.00,,,0.00,WUHU216HW,2013-03-30 22:30:00,
2013-03-30 17:35:00,63.4,56.3,29.83,ESE,113,2.7,2.7,78,0.00,,,0.00,WUHU216HW,2013-03-30 22:35:00,
2013-03-30 17:40:00,63.9,56.5,29.83,SE,135,2.0,2.7,77,0.00,,,0.00,WUHU216HW,2013-03-30 22:40:00,
2013-03-30 17:45:00,63.4,55.6,29.83,SSE,158,2.5,2.7,76,0.00,,,0.00,WUHU216HW,2013-03-30 22:45:00,
2013-03-30 17:50:00,61.9,54.6,29.83,NE,45,4.0,4.0,77,0.00,,,0.00,WUHU216HW,2013-03-30 22:50:00,
2013-03-30 17:55:00,60.8,54.4,29.83,ENE,68,2.7,4.0,79,0.00,,,0.00,WUHU216HW,2013-03-30 22:55:00,
2013-03-30 18:00:00,60.1,54.0,29.83,NE,45,3.8,4.0,80,0.00,,,0.00,WUHU216HW,2013-03-30 23:00:00,
2013-03-30 18:05:00,59.0,53.6,29.83,NE,45,3.4,3.8,82,0.00,,,0.00,WUHU216HW,2013-03-30 23:05:00,
2013-03-30 18:10:00,58.7,53.6,29.84,NE,45,4.5,4.5,83,0.00,,,0.00,WUHU216HW,2013-03-30 23:10:00,
2013-03-30 18:15:00,58.1,53.0,29.84,NNE,23,4.0,4.5,83,0.00,,,0.00,WUHU216HW,2013-03-30 23:15:00,
2013-03-30 18:20:00,57.8,52.9,29.84,North,0,5.8,5.8,84,0.00,,,0.00,WUHU216HW,2013-03-30 23:20:00,
2013-03-30 18:25:00,57.6,53.1,29.84,NNE,23,5.1,5.8,85,0.00,,,0.00,WUHU216HW,2013-03-30 23:25:00,
2013-03-30 18:30:00,57.6,53.1,29.84,NNE,23,5.1,5.8,85,0.00,,,0.00,WUHU216HW,2013-03-30 23:30:00,
2013-03-30 18:35:00,57.2,52.4,29.84,NE,45,2.7,5.1,84,0.00,,,0.00,WUHU216HW,2013-03-30 23:35:00,
2013-03-30 18:40:00,57.2,52.4,29.84,East,90,2.0,4.7,84,0.00,,,0.00,WUHU216HW,2013-03-30 23:40:00,
2013-03-30 18:45:00,57.2,52.4,29.84,ESE,113,1.8,2.7,84,0.00,,,0.00,WUHU216HW,2013-03-30 23:45:00,
2013-03-30 18:50:00,57.2,52.7,29.83,ESE,113,2.5,2.5,85,0.00,,,0.00,WUHU216HW,2013-03-30 23:50:00,
2013-03-30 18:55:00,57.1,52.6,29.83,East,90,2.2,2.5,85,0.00,,,0.00,WUHU216HW,2013-03-30 23:55:00,
2013-03-30 19:00:00,57.1,52.6,29.83,ESE,113,1.8,2.5,85,0.00,,,0.00,WUHU216HW,2013-03-31 00:00:00,
2013-03-30 19:05:00,56.7,52.2,29.83,East,90,0.0,2.2,85,0.00,,,0.00,WUHU216HW,2013-03-31 00:05:00,
2013-03-30 19:10:00,56.5,52.0,29.83,East,90,0.4,1.1,85,0.00,,,0.00,WUHU216HW,2013-03-31 00:10:00,
2013-03-30 19:15:00,56.3,51.8,29.84,NE,45,2.0,2.0,85,0.00,,,0.00,WUHU216HW,2013-03-31 00:15:00,
2013-03-30 19:20:00,55.6,51.5,29.84,NE,45,1.8,2.2,86,0.00,,,0.00,WUHU216HW,2013-03-31 00:20:00,
2013-03-30 19:25:00,55.4,51.3,29.84,NE,45,1.6,2.2,86,0.00,,,0.00,WUHU216HW,2013-03-31 00:25:00,
2013-03-30 19:30:00,54.7,50.6,29.84,NE,45,2.0,2.2,86,0.00,,,0.00,WUHU216HW,2013-03-31 00:30:00,
2013-03-30 19:35:00,54.5,50.8,29.84,NE,45,1.1,2.2,87,0.00,,,0.00,WUHU216HW,2013-03-31 00:35:00,
2013-03-30 19:40:00,54.5,51.0,29.84,ENE,68,1.1,2.0,88,0.00,,,0.00,WUHU216HW,2013-03-31 00:40:00,
2013-03-30 19:45:00,54.5,51.3,29.84,East,90,1.8,1.8,89,0.00,,,0.00,WUHU216HW,2013-03-31 00:45:00,
2013-03-30 19:50:00,54.2,51.0,29.84,East,90,0.4,1.8,89,0.00,,,0.00,WUHU216HW,2013-03-31 00:50:00,
2013-03-30 19:55:00,54.0,50.9,29.84,East,90,0.0,0.4,89,0.00,,,0.00,WUHU216HW,2013-03-31 00:55:00,
2013-03-30 20:00:00,53.8,50.7,29.85,East,90,0.0,0.4,89,0.00,,,0.00,WUHU216HW,2013-03-31 01:00:00,
2013-03-30 20:05:00,53.3,50.1,29.85,ESE,113,0.0,0.0,89,0.00,,,0.00,WUHU216HW,2013-03-31 01:05:00,
2013-03-30 20:10:00,52.9,49.8,29.85,SE,135,0.4,0.4,89,0.00,,,0.00,WUHU216HW,2013-03-31 01:10:00,
2013-03-30 20:15:00,52.9,49.8,29.85,SE,135,0.0,0.4,89,0.00,,,0.00,WUHU216HW,2013-03-31 01:15:00,
2013-03-30 20:20:00,52.2,48.7,29.85,SE,135,0.0,0.4,88,0.00,,,0.00,WUHU216HW,2013-03-31 01:20:00,
2013-03-30 20:25:00,51.8,48.3,29.85,SSE,158,0.0,0.4,88,0.00,,,0.00,WUHU216HW,2013-03-31 01:25:00,
2013-03-30 20:30:00,51.8,48.3,29.86,SE,135,0.4,0.7,88,0.00,,,0.00,WUHU216HW,2013-03-31 01:30:00,
2013-03-30 20:35:00,51.8,48.7,29.86,SE,135,1.1,1.1,89,0.00,,,0.00,WUHU216HW,2013-03-31 01:35:00,
2013-03-30 20:40:00,51.8,48.7,29.86,SE,135,0.0,1.1,89,0.00,,,0.00,WUHU216HW,2013-03-31 01:40:00,
2013-03-30 20:45:00,51.7,48.5,29.86,SSE,158,0.7,1.1,89,0.00,,,0.00,WUHU216HW,2013-03-31 01:45:00,
2013-03-30 20:50:00,51.5,48.3,29.86,SSE,158,0.9,1.1,89,0.00,,,0.00,WUHU216HW,2013-03-31 01:50:00,
2013-03-30 20:55:00,51.5,48.3,29.86,SE,135,0.0,0.9,89,0.00,,,0.00,WUHU216HW,2013-03-31 01:55:00,
2013-03-30 21:00:00,51.3,48.2,29.86,SSE,158,0.0,0.9,89,0.00,,,0.00,WUHU216HW,2013-03-31 02:00:00,
2013-03-30 21:05:00,51.1,48.0,29.86,SE,135,0.0,0.0,89,0.00,,,0.00,WUHU216HW,2013-03-31 02:05:00,
2013-03-30 21:10:00,50.9,47.8,29.86,SE,135,0.4,0.4,89,0.00,,,0.00,WUHU216HW,2013-03-31 02:10:00,
2013-03-30 21:15:00,50.8,47.6,29.86,SSE,158,0.0,0.4,89,0.00,,,0.00,WUHU216HW,2013-03-31 02:15:00,
2013-03-30 21:20:00,50.9,47.8,29.86,South,180,0.0,0.4,89,0.00,,,0.00,WUHU216HW,2013-03-31 02:20:00,
2013-03-30 21:26:00,51.1,48.0,29.87,SSE,158,0.2,0.2,89,0.00,,,0.00,WUHU216HW,2013-03-31 02:26:00,
2013-03-30 21:31:00,51.5,48.6,29.87,ESE,113,0.0,0.2,90,0.00,,,0.00,WUHU216HW,2013-03-31 02:31:00,
2013-03-30 21:36:00,51.3,48.2,29.87,ESE,113,0.0,0.0,89,0.00,,,0.00,WUHU216HW,2013-03-31 02:36:00,
2013-03-30 21:41:00,50.9,47.8,29.87,SE,135,0.0,0.0,89,0.00,,,0.00,WUHU216HW,2013-03-31 02:41:00,
2013-03-30 21:46:00,50.8,47.6,29.87,SE,135,0.0,0.0,89,0.00,,,0.00,WUHU216HW,2013-03-31 02:46:00,
2013-03-30 21:51:00,50.8,47.6,29.87,SSE,158,1.6,1.6,89,0.00,,,0.00,WUHU216HW,2013-03-31 02:51:00,
2013-03-30 21:56:00,50.6,47.4,29.86,South,180,1.1,1.6,89,0.00,,,0.00,WUHU216HW,2013-03-31 02:56:00,
2013-03-30 22:01:00,51.1,48.2,29.87,SSW,203,0.9,1.1,90,0.00,,,0.00,WUHU216HW,2013-03-31 03:01:00,
2013-03-30 22:06:00,50.9,47.8,29.87,SE,135,0.0,1.1,89,0.00,,,0.00,WUHU216HW,2013-03-31 03:06:00,
2013-03-30 22:12:00,50.8,47.6,29.87,SSE,158,0.0,0.9,89,0.00,,,0.00,WUHU216HW,2013-03-31 03:12:00,
2013-03-30 22:17:00,50.8,47.6,29.87,SSE,158,1.1,1.1,89,0.00,,,0.00,WUHU216HW,2013-03-31 03:17:00,
2013-03-30 22:22:00,50.6,47.4,29.86,South,180,1.3,1.3,89,0.00,,,0.00,WUHU216HW,2013-03-31 03:22:00,
2013-03-30 22:27:00,50.8,47.9,29.86,South,180,2.7,2.7,90,0.00,,,0.00,WUHU216HW,2013-03-31 03:27:00,
2013-03-30 22:32:00,50.9,48.1,29.86,SE,135,0.4,2.7,90,0.00,,,0.00,WUHU216HW,2013-03-31 03:32:00,
2013-03-30 22:37:00,50.8,47.9,29.87,SSE,158,0.0,1.8,90,0.00,,,0.00,WUHU216HW,2013-03-31 03:37:00,
2013-03-30 22:42:00,50.8,47.9,29.87,SSE,158,0.0,0.4,90,0.00,,,0.00,WUHU216HW,2013-03-31 03:42:00,
2013-03-30 22:47:00,51.5,48.9,29.87,SW,225,1.1,1.1,91,0.00,,,0.00,WUHU216HW,2013-03-31 03:47:00,
2013-03-30 22:52:00,51.5,48.9,29.87,WSW,248,0.2,1.1,91,0.00,,,0.00,WUHU216HW,2013-03-31 03:52:00,
2013-03-30 22:57:00,51.3,48.7,29.87,WSW,248,0.0,1.1,91,0.00,,,0.00,WUHU216HW,2013-03-31 03:57:00,
2013-03-30 23:00:00,51.1,48.5,29.87,WSW,248,0.0,0.2,91,0.00,,,0.00,WUHU216HW,2013-03-31 04:00:00,
2013-03-30 23:05:00,50.9,48.3,29.86,WSW,248,0.0,0.0,91,0.00,,,0.00,WUHU216HW,2013-03-31 04:05:00,
2013-03-30 23:10:00,51.1,48.5,29.86,SSW,203,1.1,1.1,91,0.00,,,0.00,WUHU216HW,2013-03-31 04:10:00,
2013-03-30 23:15:00,51.3,48.7,29.86,SSW,203,0.7,1.1,91,0.00,,,0.00,WUHU216HW,2013-03-31 04:15:00,
2013-03-30 23:20:00,51.5,48.9,29.86,SSW,203,0.4,1.1,91,0.00,,,0.00,WUHU216HW,2013-03-31 04:20:00,
2013-03-30 23:25:00,51.5,48.9,29.86,SSW,203,0.7,0.7,91,0.00,,,0.00,WUHU216HW,2013-03-31 04:25:00,
2013-03-30 23:30:00,51.7,49.1,29.87,West,270,0.0,0.7,91,0.00,,,0.00,WUHU216HW,2013-03-31 04:30:00,
2013-03-30 23:35:00,51.7,49.1,29.87,WSW,248,0.0,0.4,91,0.00,,,0.00,WUHU216HW,2013-03-31 04:35:00,
2013-03-30 23:40:00,51.7,49.1,29.87,NNE,23,1.3,1.3,91,0.00,,,0.00,WUHU216HW,2013-03-31 04:40:00,
2013-03-30 23:45:00,51.5,48.6,29.87,NE,45,2.7,2.7,90,0.00,,,0.00,WUHU216HW,2013-03-31 04:45:00,
2013-03-30 23:50:00,51.3,48.7,29.87,NE,45,1.8,2.7,91,0.00,,,0.00,WUHU216HW,2013-03-31 04:50:00,
2013-03-30 23:55:00,50.8,48.2,29.87,NNE,23,1.8,2.7,91,0.00,,,0.00,WUHU216HW,2013-03-31 04:55:00,